GAF120 EDDN-EDDS

Flight info

Callsign GAF120
Flight time 0h 28m
Altitude 20000
Route BOLSI1G BOLSI Y166 DKB Z818 GEBNO/N0401F190 T726 LBU
Aircraft A319/M-SDE3FGHIRWY/LB1

Departure

Time 2026-05-04 15:42
Airport Nuremberg Airport (EDDN)

Arrival

Time 2026-05-04 16:11
Airport Stuttgart Airport (EDDS)
Time Latitude Longitude Altitude Speed Heading
2026-05-04 15:25 49.49542 11.08570 1034 ft 0 kts 189°
2026-05-04 15:38 49.49531 11.08567 1034 ft 4 kts 189°
2026-05-04 15:38 49.49499 11.08526 1034 ft 9 kts 255°
2026-05-04 15:39 49.49509 11.08397 1034 ft 15 kts 281°
2026-05-04 15:39 49.49603 11.08376 1032 ft 17 kts 33°
2026-05-04 15:39 49.49583 11.08765 1035 ft 21 kts 98°
2026-05-04 15:40 49.49562 11.08992 1038 ft 23 kts 98°
2026-05-04 15:40 49.49537 11.09242 1040 ft 23 kts 98°
2026-05-04 15:40 49.49576 11.09448 1042 ft 22 kts 53°
2026-05-04 15:40 49.49688 11.09542 1045 ft 19 kts 319°
2026-05-04 15:41 49.49706 11.09468 1043 ft 0 kts 278°
2026-05-04 15:41 49.49706 11.09461 1043 ft 0 kts 278°
2026-05-04 15:41 49.49736 11.09158 1041 ft 65 kts 278°
2026-05-04 15:42 49.49841 11.08101 1031 ft 133 kts 279°
2026-05-04 15:42 49.49990 11.06580 1549 ft 143 kts 281°
2026-05-04 15:42 49.50137 11.05064 2339 ft 143 kts 280°
2026-05-04 15:42 49.50288 11.03518 2975 ft 154 kts 280°
2026-05-04 15:43 49.50460 11.01764 3470 ft 177 kts 280°
2026-05-04 15:43 49.50658 10.99754 3983 ft 203 kts 279°
2026-05-04 15:43 49.50882 10.97475 4671 ft 228 kts 280°
2026-05-04 15:43 49.51128 10.94966 5368 ft 253 kts 278°
2026-05-04 15:44 49.51081 10.92185 6276 ft 269 kts 254°
2026-05-04 15:44 49.50329 10.89525 7418 ft 271 kts 242°
2026-05-04 15:44 49.49512 10.86909 8628 ft 273 kts 242°
2026-05-04 15:44 49.48694 10.84273 9841 ft 274 kts 242°
2026-05-04 15:45 49.47873 10.81617 10929 ft 276 kts 241°
2026-05-04 15:45 49.46822 10.79155 11936 ft 277 kts 225°
2026-05-04 15:45 49.45303 10.77315 12935 ft 283 kts 210°
2026-05-04 15:45 49.43382 10.76250 13402 ft 308 kts 191°
2026-05-04 15:46 49.41149 10.76092 13745 ft 334 kts 182°
2026-05-04 15:46 49.38743 10.76073 13958 ft 357 kts 182°
2026-05-04 15:46 49.36181 10.76054 14178 ft 377 kts 182°
2026-05-04 15:46 49.33565 10.76027 14741 ft 385 kts 182°
2026-05-04 15:47 49.30865 10.75990 15420 ft 390 kts 182°
2026-05-04 15:47 49.28168 10.75569 16097 ft 392 kts 195°
2026-05-04 15:47 49.25645 10.73996 16769 ft 394 kts 211°
2026-05-04 15:47 49.23519 10.71350 17409 ft 398 kts 227°
2026-05-04 15:48 49.21978 10.67813 18063 ft 403 kts 244°
2026-05-04 15:48 49.21112 10.63715 18676 ft 408 kts 254°
2026-05-04 15:48 49.19686 10.55249 19768 ft 414 kts 254°
2026-05-04 15:49 49.18967 10.50989 19834 ft 414 kts 254°
2026-05-04 15:49 49.18242 10.46720 18832 ft 416 kts 254°
2026-05-04 15:49 49.17510 10.42453 17721 ft 413 kts 254°
2026-05-04 15:49 49.16780 10.38234 16624 ft 408 kts 253°
2026-05-04 15:50 49.16057 10.34064 15596 ft 403 kts 253°
2026-05-04 15:50 49.15344 10.29952 14628 ft 398 kts 253°
2026-05-04 15:50 49.14760 10.25843 13710 ft 395 kts 260°
2026-05-04 15:50 49.14552 10.21679 12729 ft 392 kts 265°
2026-05-04 15:51 49.14073 10.17625 12202 ft 388 kts 248°
2026-05-04 15:51 49.12856 10.13957 11998 ft 387 kts 239°
2026-05-04 15:51 49.11575 10.10343 11977 ft 387 kts 240°
2026-05-04 15:51 49.10312 10.06707 11985 ft 388 kts 240°
2026-05-04 15:52 49.09067 10.03056 11976 ft 388 kts 241°
2026-05-04 15:52 49.07834 9.99389 11975 ft 390 kts 241°
2026-05-04 15:52 49.06606 9.95704 11979 ft 390 kts 242°
2026-05-04 15:52 49.05380 9.92014 11976 ft 390 kts 242°
2026-05-04 15:53 49.04175 9.88387 11910 ft 387 kts 242°
2026-05-04 15:53 49.02970 9.84766 11176 ft 381 kts 241°
2026-05-04 15:53 49.01764 9.81166 10736 ft 382 kts 241°
2026-05-04 15:53 49.00584 9.77649 10420 ft 363 kts 240°
2026-05-04 15:54 48.99463 9.74314 10083 ft 345 kts 240°
2026-05-04 15:54 48.98393 9.71144 9844 ft 328 kts 240°
2026-05-04 15:54 48.97377 9.68136 9639 ft 311 kts 241°
2026-05-04 15:54 48.96415 9.65292 9512 ft 294 kts 241°
2026-05-04 15:55 48.95500 9.62586 9383 ft 281 kts 240°
2026-05-04 15:55 48.94618 9.59984 9055 ft 276 kts 240°
2026-05-04 15:55 48.93739 9.57401 8665 ft 274 kts 240°
2026-05-04 15:55 48.92867 9.54840 8392 ft 269 kts 240°
2026-05-04 15:56 48.92023 9.52361 8181 ft 261 kts 240°
2026-05-04 15:56 48.91190 9.49924 7997 ft 260 kts 240°
2026-05-04 15:56 48.90354 9.47476 7977 ft 260 kts 240°
2026-05-04 15:56 48.89541 9.45089 7976 ft 257 kts 240°
2026-05-04 15:57 48.88692 9.42608 7977 ft 269 kts 240°
2026-05-04 15:57 48.87821 9.40066 7974 ft 272 kts 240°
2026-05-04 15:57 48.86948 9.37511 7879 ft 271 kts 240°
2026-05-04 15:57 48.86080 9.34970 7497 ft 270 kts 240°
2026-05-04 15:58 48.85213 9.32439 7116 ft 270 kts 240°
2026-05-04 15:58 48.84390 9.29881 6731 ft 270 kts 244°
2026-05-04 15:58 48.83682 9.27243 6372 ft 270 kts 246°
2026-05-04 15:58 48.83008 9.24593 5987 ft 269 kts 247°
2026-05-04 15:59 48.82346 9.21943 5605 ft 269 kts 248°
2026-05-04 15:59 48.81682 9.19289 5213 ft 269 kts 248°
2026-05-04 15:59 48.81017 9.16644 5004 ft 269 kts 249°
2026-05-04 15:59 48.80344 9.13989 5008 ft 270 kts 249°
2026-05-04 16:00 48.79673 9.11362 5006 ft 271 kts 249°
2026-05-04 16:00 48.78991 9.08701 5009 ft 271 kts 249°
2026-05-04 16:00 48.78309 9.06040 5009 ft 271 kts 249°
2026-05-04 16:00 48.77625 9.03374 5011 ft 271 kts 249°
2026-05-04 16:01 48.76941 9.00711 5011 ft 271 kts 248°
2026-05-04 16:01 48.76256 8.98055 5010 ft 271 kts 249°
2026-05-04 16:01 48.75571 8.95396 5009 ft 271 kts 248°
2026-05-04 16:01 48.74886 8.92740 5010 ft 271 kts 249°
2026-05-04 16:02 48.74202 8.90083 5012 ft 271 kts 249°
2026-05-04 16:02 48.73514 8.87419 5007 ft 273 kts 248°
2026-05-04 16:02 48.71754 8.82389 4856 ft 271 kts 221°
2026-05-04 16:03 48.70132 8.81095 4633 ft 262 kts 191°
2026-05-04 16:03 48.68365 8.81140 4505 ft 250 kts 166°
2026-05-04 16:03 48.66711 8.81730 4363 ft 239 kts 164°
2026-05-04 16:03 48.65161 8.82480 4247 ft 230 kts 149°
2026-05-04 16:04 48.63947 8.83971 4118 ft 222 kts 129°
2026-05-04 16:04 48.62803 8.87949 4012 ft 193 kts 94°
2026-05-04 16:04 48.62835 8.89857 4041 ft 175 kts 79°
2026-05-04 16:05 48.63132 8.91608 4018 ft 174 kts 72°
2026-05-04 16:05 48.63472 8.93377 4006 ft 175 kts 72°
2026-05-04 16:05 48.64085 8.96574 3997 ft 143 kts 72°
2026-05-04 16:06 48.64357 8.97988 4012 ft 137 kts 72°
2026-05-04 16:06 48.65066 9.01673 3765 ft 136 kts 72°
2026-05-04 16:07 48.65330 9.03046 3598 ft 135 kts 71°
2026-05-04 16:07 48.66110 9.07115 3079 ft 133 kts 71°
2026-05-04 16:08 48.66357 9.08409 2913 ft 126 kts 72°
2026-05-04 16:08 48.67095 9.12239 2437 ft 134 kts 71°
2026-05-04 16:09 48.67630 9.14946 2078 ft 135 kts 73°
2026-05-04 16:09 48.68107 9.17676 1691 ft 133 kts 70°
2026-05-04 16:10 48.68637 9.20337 1342 ft 131 kts 69°
2026-05-04 16:11 48.69115 9.22536 1286 ft 21 kts 345°
2026-05-04 16:11 48.69172 9.22513 1288 ft 0 kts 345°
2026-05-04 16:12 48.69157 9.22190 1288 ft 20 kts 252°
2026-05-04 16:12 48.69039 9.21538 1287 ft 18 kts 254°
2026-05-04 16:13 48.68950 9.21082 1286 ft 27 kts 253°
2026-05-04 16:13 48.68836 9.20471 1286 ft 32 kts 254°
2026-05-04 16:14 48.68698 9.19976 1286 ft 17 kts 176°
2026-05-04 16:14 48.68454 9.20081 1289 ft 23 kts 165°
2026-05-04 16:15 48.68264 9.19714 1287 ft 13 kts 249°
2026-05-04 16:16 48.68214 9.19683 1287 ft 0 kts 173°
2026-05-04 16:16 48.68215 9.19696 1288 ft 0 kts 73°
2026-05-04 16:17 48.68222 9.19695 1287 ft 0 kts